Regional Weather Roundup
Issued by NWS Memphis, TN

Home | Current Version | Previous Version | Text Only | Print | Product List | Glossary On
Versions: 1 2 3 4 5 6 7 8 9 10 11 12 13 14 15 16 17 18 19 20 21 22 23 24 25 26 27 28 29 30 31 32 33 34 35 36 37 38 39 40 41 42 43 44 45 46 47 48 49 50
000
ASUS44 KMEG 280010
RWRMEG
MEMPHIS CWA HOURLY WEATHER ROUNDUP
NATIONAL WEATHER SERVICE MEMPHIS TN
700 PM CDT MON MAR 27 2017

...WEST TENNESSEE...

CITY           SKY/WX    TMP DP  RH WIND       PRES   REMARKS
MEMPHIS INTL   PTCLDY    78  59  51 W12G25    29.79R
6HR MIN TEMP:  76; 6HR MAX TEMP:  82;

NWS MEMPHIS      N/A     78 N/A N/A MISG        N/A
JACKSON        PTCLDY    63  61  93 N8        29.81R
6HR MIN TEMP:  63; 6HR MAX TEMP:  75; 6HR PCP:  0.74;

SOMERVILLE     MOCLDY    68  61  77 N10G20    29.80R
BOLIVAR        MOCLDY    66  61  82 N8G14     29.79R
SAVANNAH       PTCLDY    70  61  73 S8G17     29.77R
DYERSBURG      MOCLDY    62  59  90 N3        29.83R
6HR MIN TEMP:  58; 6HR MAX TEMP:  63; 6HR PCP:  0.80;

PARIS          MOCLDY    55  55 100 E3        29.82F
HUNTINGDON     PTCLDY    61  59  94 E5        29.81S


...EASTERN ARKANSAS...

CITY           SKY/WX    TMP DP  RH WIND       PRES   REMARKS
JONESBORO      CLEAR     69  57  65 NW8       29.81R
6HR MIN TEMP:  66; 6HR MAX TEMP:  72; 6HR PCP:  0.10;

WEST MEMPHIS   MOCLDY    72  65  78 VRB5G16   29.79R
6HR MIN TEMP:  72; 6HR MAX TEMP:  80;

BATESVILLE     CLEAR     70  55  60 NW6       29.83R
6HR MIN TEMP:  63; 6HR MAX TEMP:  79;

NEWPORT        CLEAR     68  59  73 MISG      29.82R
6HR MIN TEMP:  64; 6HR MAX TEMP:  77;

WALNUT RIDGE   CLEAR     68  55  64 CALM      29.82R
6HR MIN TEMP:  59; 6HR MAX TEMP:  73;

BLYTHEVILLE    PTCLDY    64  61  90 NE6       29.82R
6HR MIN TEMP:  57; 6HR MAX TEMP:  69;

SEARCY         CLEAR     75  54  47 W6        29.82R
6HR MIN TEMP:  74; 6HR MAX TEMP:  81;

STUTTGART      PTCLDY    77  57  50 SW8       29.81R
6HR MIN TEMP:  75; 6HR MAX TEMP:  81;

PINE BLUFF     CLEAR     78  60  53 W10       29.81R
6HR MIN TEMP:  78; 6HR MAX TEMP:  81;

MONTICELLO     CLEAR     80  61  52 SW8       29.81R


...NORTH MISSISSIPPI...

CITY           SKY/WX    TMP DP  RH WIND       PRES   REMARKS
TUPELO         CLEAR     76  60  57 S10       29.81S
6HR MIN TEMP:  72; 6HR MAX TEMP:  81; 6HR PCP: TRACE;

OXFORD         CLEAR     75  59  57 SW10G22   29.83R
BATESVILLE     PTCLDY    77  63  61 SW15G21   29.81R
6HR MIN TEMP:  68; 6HR MAX TEMP:  80;

OLIVE BRANCH   MOCLDY   N/A N/A N/A W13G25    29.79R
TUNICA         CLEAR     77  59  53 W13       29.80R
CLARKSDALE     MOCLDY    81  64  57 SW9       29.80R
CORINTH        MOCLDY    72  63  73 S9G17     29.77S
GREENWOOD      CLEAR     75  64  68 SW9       29.82S
6HR MIN TEMP:  75; 6HR MAX TEMP:  82;

STARKVILLE     CLEAR     73  63  68 S9        29.87R
GOLDEN TRIANGL CLEAR     72  57  60 S12       29.83R


...SOUTHEAST MISSOURI...

CITY           SKY/WX    TMP DP  RH WIND       PRES   REMARKS
KENNETT        PTCLDY    66  61  82 N6        29.81R
MALDEN         CLEAR     64  59  82 N5        29.83R
WEST PLAINS    PTCLDY    63  52  67 NW12      29.86R
6HR MIN TEMP:  59; 6HR MAX TEMP:  67; 6HR PCP:  0.03;

POPLAR BLUFF   PTCLDY    67  57  70 NW6       29.82R
6HR MIN TEMP:  58; 6HR MAX TEMP:  68; 6HR PCP:  0.01;

CAPE GIRARDEAU LGT RAIN  62  57  83 S5        29.82R
6HR MIN TEMP:  58; 6HR MAX TEMP:  65; 6HR PCP:  0.06;



...NORTHWEST ALABAMA...

CITY           SKY/WX    TMP DP  RH WIND       PRES   REMARKS
MUSCLE SHOALS  PTCLDY    66  60  81 S9        29.83F
6HR MIN TEMP:  64; 6HR MAX TEMP:  79; 6HR PCP:  0.41;



...MIDDLE TENNESSEE...

CITY           SKY/WX    TMP DP  RH WIND       PRES   REMARKS
NASHVILLE      TSTM      61  58  90 E7        29.89R
6HR MIN TEMP:  61; 6HR MAX TEMP:  78; 6HR PCP:  0.05;

CLARKSVILLE    TSTM      58  55  90 E3        29.84S FOG
6HR MIN TEMP:  57; 6HR MAX TEMP:  75; 6HR PCP:  0.93;

COLUMBIA       PTCLDY    64  64 100 NE7       29.81R


...WESTERN KENTUCKY...

CITY           SKY/WX    TMP DP  RH WIND       PRES   REMARKS
PADUCAH        PTCLDY    61  55  81 S5        29.82R
6HR MIN TEMP:  58; 6HR MAX TEMP:  63; 6HR PCP:  0.27;

FORT CAMPBELL  TSTM      58  58 100 SE7       29.83F
6HR MIN TEMP:  56; 6HR MAX TEMP:  75; 6HR PCP:  0.63;



...CENTRAL ARKANSAS...

CITY           SKY/WX    TMP DP  RH WIND       PRES   REMARKS
LITTLE ROCK    PTCLDY    72  57  59 NW16      29.82R
6HR MIN TEMP:  72; 6HR MAX TEMP:  81;



SKY/WX REPORTED AS FAIR MEANS FEW OR NO CLOUDS BELOW
12 THOUSAND FEET.




USA.gov is the U.S. government's official web portal to all federal, state and local government web resources and services.